This is the latest recevied weather packets stored in our database for station/object DB0MOD. If no packets are shown the sender has not sent any weather packets the latest 1 day(s).
| Time | Temp. | Humidity | Pressure | Rain* | Wind** | Luminosity | Snow |
|---|---|---|---|---|---|---|---|
| 1777978444 | 20° C | 36% | 1008.7 hPa | 0 mm | 0 m/s | - | - |
| 1777978144 | 20° C | 34% | 1008.7 hPa | 0 mm | 0 m/s | - | - |
| 1777977844 | 20° C | 30% | 1008.7 hPa | 0 mm | 0 m/s | - | - |
| 1777977544 | 20.56° C | 27% | 1008.7 hPa | 0 mm | 0 m/s | - | - |
| 1777977244 | 20.56° C | 27% | 1008.5 hPa | 0 mm | 0 m/s | - | - |
| 1777976944 | 20.56° C | 25% | 1008.5 hPa | 0 mm | 0 m/s | - | - |
| 1777976644 | 20.56° C | 22% | 1008.4 hPa | 0 mm | 0 m/s | - | - |
| 1777976344 | 19.44° C | 16% | 1008.5 hPa | 0 mm | 0 m/s | - | - |
| 1777976044 | 18.89° C | 20% | 1008.5 hPa | 0 mm | 0 m/s | - | - |
| 1777975744 | 18.33° C | 21% | 1008.4 hPa | 0 mm | 0 m/s | - | - |
| 1777975444 | 18.33° C | 20% | 1008.6 hPa | 0 mm | 0 m/s | - | - |
| 1777975144 | 18.33° C | 14% | 1008.5 hPa | 0 mm | 0 m/s | - | - |
| 1777974844 | 18.33° C | 14% | 1008.7 hPa | 0 mm | 0 m/s | - | - |
| 1777974544 | 18.33° C | 11% | 1008.5 hPa | 0 mm | 0 m/s | - | - |
| 1777974244 | 18.33° C | 11% | 1008.6 hPa | 0 mm | 0 m/s | - | - |
| 1777973944 | 17.78° C | 10% | 1008.6 hPa | 0 mm | 0 m/s | - | - |
| 1777973644 | 17.78° C | 10% | 1008.6 hPa | 0 mm | 0 m/s | - | - |
| 1777973344 | 17.22° C | 10% | 1008.5 hPa | 0 mm | 0 m/s | - | - |
| 1777973044 | 17.22° C | 10% | 1008.6 hPa | 0 mm | 0 m/s | - | - |
| 1777972744 | 16.67° C | 10% | 1008.7 hPa | 0 mm | 0 m/s | - | - |
| 1777972444 | 16.67° C | 10% | 1008.7 hPa | 0 mm | 0 m/s | - | - |
| 1777972144 | 16.67° C | 10% | 1008.9 hPa | 0 mm | 0 m/s | - | - |
| 1777971844 | 17.22° C | 10% | 1008.8 hPa | 0 mm | 0 m/s | - | - |
| 1777971544 | 17.78° C | 10% | 1008.8 hPa | 0 mm | 0 m/s | - | - |
| 1777971244 | 18.33° C | 10% | 1008.8 hPa | 0 mm | 0 m/s | - | - |
* Rain latest hour (hover to see other rain measurements)
** Current wind speed in m/s (hover to see current wind gust speed)